THORAD AGENA D DEB, 4685

Orbit data source: Space-Track

THORAD AGENA D DEB, 4685 is space debris in SSO originally from a launch on Wed, 08 Apr 1970 UTC launched from the Air Force Western Test Range (AFWTR). Debris objects in space refer to the collection of defunct objects orbiting the Earth. Examples of debris include non-operational satellites, rocket bodies, and fragments generated from explosions, collisions, or faulty payload assembly.

Loading next visibility...
Identifier
4685, 1970-025BJ
Orbit
SSO
Country
Flag of USUS
Related business
Manufacturer
Unknown
Mission
Spacecraft
Bus & Motor
Unknown
Mass
Unknown
Launch date (UTC)
1970-04-08 (56 years ago)
Launch vehicle
Unknown
Launch site
Air Force Western Test Range (AFWTR)
Object type
Payload
Rocket body
Debris
Shape & HBR
Unknown shape, 0.2 m
Radar Cross Section
Medium (>0.1 m² and <1 m²)

Expand to show TLE details & history
Last TLE update: 3 hours ago

TLE from 3 hours ago
0 THORAD AGENA D DEB
1  4685U 70025BJ  25300.20411383  .00000433  00000-0  67337-3 0  9998
2  4685  99.9444  18.2476 0054545 148.6901 237.4081 13.56421081737928
Epoch: 2025-10-27T04:53Z
TLE epoch observation values (Epoch: 2025-10-27T04:53:55.434Z)
Latitude
25.19204°
Longitude
-95.74906°
Altitude
1,073.645 km
Speed
7.307 km/s
True Right ascension
00h 54m 09s
True Declination
25° 03' 56"
Sunlit
Object was in full shadow at epoch
Visualization orbit readout
Latitude
Unknown
Longitude
Unknown
Altitude
Unknown
Speed
Unknown
Apparent Right ascension
Unknown
Apparent Declination
Unknown
Sunlit
N/A
Visualization observer readout
Local Sidereal Time
03:44:09
Azimuth
Unknown
Elevation
Unknown
Doppler factor
Unknown
Orbital elements
Apogee altitude
1,086.528 km
Perigee altitude
1,005.538 km
Semi-major axis
7,424.17 km
Eccentricity
0.00545
Inclination
99.9444°
RAAN
18.2476°
Arg. of periapsis
148.6901°
True anomaly
236.88342°
Mean anomaly
237.4081°
Eccentric anomaly
237.14557°
Mean motion
3.3929 °/min
Orbital period
106.1 mins
BSTAR
0.00067337
Loading maneuver chart data...
Computing Atmospheric mass density...

Documentation

Showing up to 5 results
|